[[{"header":{"parameterUnit":"m.s-1","parameterCategory":2,"la1":30.2992,"la2":30.254,"lo1":-89.0895,"lo2":-89.0443,"dy":0.0025,"dx":0.0025,"nx":19,"ny":19,"refTime":"2026-03-17T21:00:00:Z","depth":"0","parameterNumber":2,"parameterNumberName":"U-component_of_CURRENTS"},"data":[0,0,0,-0.1673,-0.1673,-0.1621,-0.162,-0.1507,-0.1506,0,0,0,0,0,0,0,0,0,0,0,-0.1693,-0.1693,-0.1673,-0.1673,-0.1621,-0.162,-0.1507,-0.1506,0,0,0,0,0,0,0,0,0,0,0,-0.1693,-0.1693,-0.1694,-0.1673,-0.1621,-0.162,-0.1507,-0.1553,0,0,0,0,0,0,0,0,0,0,-0.1607,-0.1624,-0.1693,-0.1694,-0.1672,-0.1621,-0.162,-0.1555,-0.155,-0.1524,0,-0.1534,0,-0.1525,-0.1499,-0.1499,0,0,0,-0.165,-0.1629,-0.1635,-0.1694,-0.1672,-0.1621,-0.1638,-0.1552,-0.1546,-0.1516,-0.1533,-0.1529,-0.1524,-0.1499,-0.1498,-0.1543,-0.1544,0,0,-0.1653,-0.1657,-0.164,-0.1632,-0.1682,-0.164,-0.1637,-0.1549,-0.154,-0.1532,-0.1526,-0.1522,-0.1498,-0.1497,-0.1542,-0.1543,0,0,0,-0.1676,-0.1659,-0.1667,-0.1636,-0.1635,-0.1639,-0.1635,-0.1543,-0.1552,-0.1525,-0.152,-0.1497,-0.1496,-0.154,-0.1542,-0.1622,0,0,0,-0.1677,-0.1674,-0.1669,-0.1666,-0.1638,-0.1591,-0.1631,-0.1558,-0.1548,-0.1521,-0.1497,-0.1495,-0.1539,-0.1541,-0.1617,-0.1519,0,0,0,-0.1691,-0.1675,-0.1681,-0.1667,-0.1657,-0.1593,-0.1595,-0.1556,-0.1546,-0.1499,-0.1495,-0.1538,-0.1541,-0.1612,-0.1516,-0.1457,0,0,0,-0.1679,-0.1698,-0.1681,-0.1706,-0.1658,-0.168,-0.1595,-0.1579,-0.1548,-0.1497,-0.1539,-0.1542,-0.1611,-0.1515,-0.1457,-0.1304,-0.1294,0,0,-0.1699,-0.17,-0.1719,-0.1705,-0.1743,-0.1684,-0.1728,-0.1642,-0.1587,-0.1556,-0.1557,-0.1618,-0.1516,-0.1457,-0.1474,-0.1458,0,0,0,-0.1724,-0.1731,-0.1743,-0.176,-0.1774,-0.1758,-0.173,-0.1714,-0.1685,-0.1586,-0.1656,-0.1586,-0.1547,-0.1457,-0.1447,-0.1339,-0.1555,-0.1555,-0.1555,-0.1646,-0.1709,-0.1724,-0.1793,-0.1812,-0.1824,-0.1795,-0.1769,-0.1771,-0.1794,-0.1687,-0.1724,-0.164,-0.1627,-0.1524,-0.1795,-0.1795,-0.1795,-0.1796,-0.16,-0.1578,-0.1676,-0.1713,-0.1759,-0.1791,-0.1822,-0.1831,-0.1783,-0.1808,-0.177,-0.1588,-0.1618,-0.1512,-0.1801,-0.18,-0.18,-0.1799,-0.1799,-0.148,-0.1476,-0.1535,-0.1588,-0.1619,-0.1703,-0.1669,-0.1715,-0.1743,-0.1715,-0.1568,-0.1565,-0.1426,-0.1721,-0.172,-0.172,-0.1719,-0.1719,-0.1718,-0.1273,-0.1348,-0.1375,-0.1446,-0.1461,-0.1489,-0.1552,-0.1547,-0.1528,-0.1535,-0.1535,-0.1422,-0.1697,-0.1647,-0.1709,-0.1711,-0.1712,-0.1713,-0.1714,-0.0989,-0.1143,-0.1159,-0.1194,-0.1264,-0.1226,-0.1333,-0.1297,-0.1296,-0.1245,-0.119,-0.1439,-0.1348,-0.1357,-0.1299,-0.1265,-0.1265,-0.1265,-0.1265,-0.0802,-0.0885,-0.0954,-0.1004,-0.1038,-0.1097,-0.099,-0.0988,-0.0955,-0.089,-0.0951,-0.0988,-0.1011,-0.0904,-0.0922,-0.0857,-0.0712,-0.0712,-0.0711,-0.0545,-0.0677,-0.0647,-0.0871,-0.0934,-0.0939,-0.0784,-0.0655,-0.0625,-0.0685,-0.0833,-0.0856,-0.0917,-0.0961,-0.0804,-0.0839,-0.0736,0,0]},{"header":{"parameterUnit":"m.s-1","parameterCategory":2,"la1":30.2992,"la2":30.254,"lo1":-89.0895,"lo2":-89.0443,"dy":0.0025,"dx":0.0025,"nx":19,"ny":19,"refTime":"2026-03-17T21:00:00:Z","depth":"0","parameterNumber":3,"parameterNumberName":"V-component_of_CURRENTS"},"data":[0,0,0,0.0212,0.0211,0.0206,0.0206,0.0234,0.0235,0,0,0,0,0,0,0,0,0,0,0,0.0219,0.0219,0.0212,0.0211,0.0206,0.0206,0.0234,0.0235,0,0,0,0,0,0,0,0,0,0,0,0.0219,0.0219,0.0219,0.0211,0.0206,0.0206,0.0234,0.0232,0,0,0,0,0,0,0,0,0,0,0.0234,0.0224,0.0219,0.0219,0.0211,0.0206,0.0206,0.0232,0.0232,0.0244,0,0.0238,0,0.0231,0.0236,0.0236,0,0,0,0.0222,0.0223,0.0227,0.0219,0.0211,0.0206,0.0211,0.0232,0.0232,0.0245,0.0239,0.0239,0.0232,0.0237,0.0237,0.0231,0.0231,0,0,0.0222,0.0215,0.0226,0.0227,0.0204,0.0211,0.0211,0.0232,0.0228,0.0239,0.024,0.0232,0.0237,0.0237,0.0232,0.0231,0,0,0,0.0216,0.0215,0.0218,0.0226,0.0219,0.0211,0.021,0.0227,0.0229,0.024,0.0232,0.0237,0.0237,0.0232,0.0231,0.0159,0,0,0,0.0217,0.0211,0.0218,0.0214,0.0218,0.0215,0.0205,0.0228,0.023,0.0232,0.0237,0.0237,0.0232,0.0232,0.0162,0.0103,0,0,0,0.022,0.0211,0.021,0.0213,0.0206,0.0215,0.0218,0.0228,0.0225,0.0237,0.0238,0.0232,0.0232,0.0164,0.0109,0.0101,0,0,0,0.0215,0.0176,0.021,0.0162,0.0206,0.0177,0.0218,0.0207,0.0212,0.0237,0.0232,0.0232,0.0165,0.0112,0.0104,0.0179,0.0173,0,0,0.0156,0.0169,0.0139,0.0168,0.0107,0.0179,0.0141,0.0172,0.0209,0.023,0.023,0.0161,0.0109,0.0102,0.0144,0.0139,0,0,0,0.0113,0.0086,0.0076,0.0051,0.006,0.0068,0.0115,0.0141,0.0162,0.0208,0.0169,0.0138,0.0136,0.0188,0.0183,0.0323,0.0229,0.0229,0.0229,0.0016,0.0014,-0.0047,-0.0045,-0.0047,-0.0004,0.0009,0.0057,0.0114,0.0117,0.0086,0.0035,0.0089,0.0087,0.023,0.0109,0.0108,0.0108,0.0108,-0.0097,-0.0102,-0.0134,-0.0188,-0.0155,-0.0159,-0.0094,-0.0047,-0.002,0.003,0.0034,0.0116,0.0079,0.0233,0.0103,0.0104,0.0105,0.0105,0.0106,-0.0126,-0.0114,-0.0189,-0.0266,-0.0289,-0.0242,-0.0245,-0.0182,-0.0109,-0.0115,-0.0011,-0.0008,0.0124,-0.0091,-0.0092,-0.0092,-0.0092,-0.0092,-0.0092,-0.0069,-0.0146,-0.0249,-0.0325,-0.0363,-0.0372,-0.0323,-0.0283,-0.0177,-0.0101,-0.0098,0.0129,-0.0025,-0.0022,-0.0097,-0.0096,-0.0096,-0.0095,-0.0095,-0.0023,-0.0083,-0.0226,-0.0315,-0.0446,-0.0459,-0.041,-0.0277,-0.0225,-0.0154,0.0117,-0.0068,-0.0035,-0.0029,-0.0025,-0.0097,-0.0097,-0.0097,-0.0097,0.0044,-0.0013,-0.0195,-0.0367,-0.0492,-0.0497,-0.0397,-0.0223,0.0033,0.0182,0.0193,0.0279,0.0273,0.0328,0.0326,0.034,0.0362,0.0363,0.0363,0.0068,0.002,-0.0101,-0.0327,-0.0507,-0.052,-0.0373,-0.0047,0.0318,0.0394,0.0368,0.0348,0.0486,0.0465,0.0564,0.055,0.0576,0,0]}],[{"header":{"parameterUnit":"m.s-1","parameterCategory":2,"la1":30.2992,"la2":30.254,"lo1":-89.0895,"lo2":-89.0443,"dy":0.0025,"dx":0.0025,"nx":19,"ny":19,"refTime":"2026-03-17T21:00:00:Z","depth":"2","parameterNumber":2,"parameterNumberName":"U-component_of_CURRENTS"},"data":[0,0,0,-0.127,-0.1272,-0.1417,-0.1417,-0.1692,-0.1694,0,0,0,0,0,0,0,0,0,0,0,-0.123,-0.1231,-0.127,-0.1273,-0.1416,-0.1417,-0.1691,-0.1694,0,0,0,0,0,0,0,0,0,0,0,-0.123,-0.1231,-0.1232,-0.1273,-0.1416,-0.1417,-0.1691,-0.1564,0,0,0,0,0,0,0,0,0,0,-0.1415,-0.1342,-0.1231,-0.1232,-0.1274,-0.1416,-0.1418,-0.1558,-0.1572,-0.1646,0,-0.1663,0,-0.1675,-0.1713,-0.1714,0,0,0,-0.1293,-0.1329,-0.138,-0.1232,-0.1275,-0.1416,-0.1357,-0.1565,-0.1582,-0.1666,-0.1667,-0.1677,-0.168,-0.1715,-0.1716,-0.1915,-0.1915,0,0,-0.1285,-0.1252,-0.1368,-0.139,-0.1309,-0.1352,-0.1361,-0.1575,-0.1586,-0.1668,-0.1683,-0.1684,-0.1716,-0.1718,-0.1915,-0.1915,0,0,0,-0.1248,-0.1246,-0.129,-0.138,-0.1394,-0.1356,-0.1367,-0.1577,-0.1595,-0.1685,-0.1688,-0.1718,-0.1721,-0.1915,-0.1915,-0.1871,0,0,0,-0.1245,-0.1223,-0.1286,-0.1267,-0.1388,-0.1469,-0.1364,-0.158,-0.1604,-0.1686,-0.1718,-0.1724,-0.1915,-0.1915,-0.1872,-0.1793,0,0,0,-0.1224,-0.122,-0.1238,-0.1265,-0.1318,-0.1466,-0.1496,-0.1585,-0.1605,-0.1714,-0.1725,-0.1915,-0.1915,-0.1873,-0.1797,-0.1754,0,0,0,-0.1184,-0.1223,-0.1238,-0.1281,-0.1317,-0.141,-0.1495,-0.158,-0.1665,-0.1719,-0.1915,-0.1915,-0.1873,-0.1799,-0.1757,-0.1626,-0.1604,0,0,-0.1214,-0.1225,-0.1252,-0.1269,-0.1369,-0.1392,-0.1496,-0.1638,-0.1696,-0.1855,-0.1859,-0.1872,-0.1797,-0.1755,-0.1641,-0.1618,0,0,0,-0.1249,-0.1281,-0.131,-0.1367,-0.1423,-0.147,-0.1589,-0.1641,-0.1759,-0.1745,-0.1889,-0.1843,-0.1818,-0.1746,-0.1728,-0.1916,-0.1916,-0.1916,-0.1916,-0.129,-0.1322,-0.1375,-0.1426,-0.1472,-0.1556,-0.1584,-0.1674,-0.1775,-0.1798,-0.1823,-0.1773,-0.1699,-0.1683,-0.1873,-0.1873,-0.1873,-0.1872,-0.1872,-0.1335,-0.134,-0.1399,-0.1453,-0.1495,-0.1564,-0.1631,-0.167,-0.1718,-0.1793,-0.1773,-0.1721,-0.166,-0.1869,-0.187,-0.187,-0.1871,-0.1871,-0.1871,-0.1314,-0.1312,-0.1353,-0.1405,-0.1461,-0.1529,-0.1539,-0.1595,-0.1641,-0.1616,-0.1568,-0.1568,-0.1704,-0.1643,-0.1643,-0.1642,-0.1642,-0.1641,-0.1641,-0.1236,-0.1283,-0.128,-0.1344,-0.1358,-0.1394,-0.1458,-0.1462,-0.1455,-0.1462,-0.1462,-0.1694,-0.1702,-0.169,-0.1633,-0.1635,-0.1636,-0.1636,-0.1637,-0.1181,-0.1175,-0.1169,-0.1176,-0.121,-0.1179,-0.1282,-0.1252,-0.126,-0.121,-0.1373,-0.1382,-0.1368,-0.1382,-0.1363,-0.1224,-0.1224,-0.1224,-0.1224,-0.1108,-0.1118,-0.1066,-0.1046,-0.1041,-0.1074,-0.0976,-0.0967,-0.1017,-0.102,-0.1029,-0.107,-0.1091,-0.1066,-0.1088,-0.1065,-0.0848,-0.0848,-0.0847,-0.1068,-0.1056,-0.0992,-0.0972,-0.096,-0.0935,-0.0786,-0.0646,-0.0678,-0.0837,-0.1013,-0.119,-0.1279,-0.1299,-0.1289,-0.1313,-0.1289,0,0]},{"header":{"parameterUnit":"m.s-1","parameterCategory":2,"la1":30.2992,"la2":30.254,"lo1":-89.0895,"lo2":-89.0443,"dy":0.0025,"dx":0.0025,"nx":19,"ny":19,"refTime":"2026-03-17T21:00:00:Z","depth":"2","parameterNumber":3,"parameterNumberName":"V-component_of_CURRENTS"},"data":[0,0,0,-0.0164,-0.0165,-0.0149,-0.0149,-0.0011,-0.001,0,0,0,0,0,0,0,0,0,0,0,-0.0165,-0.0165,-0.0164,-0.0165,-0.0149,-0.0149,-0.0011,-0.001,0,0,0,0,0,0,0,0,0,0,0,-0.0165,-0.0165,-0.0166,-0.0165,-0.0149,-0.0149,-0.0012,-0.0049,0,0,0,0,0,0,0,0,0,0,-0.0077,-0.0098,-0.0165,-0.0166,-0.0165,-0.0149,-0.0149,-0.0052,-0.0047,0.0011,0,0.0003,0,-0.0006,0.0001,0.0001,0,0,0,-0.0149,-0.0103,-0.0104,-0.0166,-0.0165,-0.0149,-0.0152,-0.005,-0.0044,0.0018,0.0004,0.0009,-0.0003,0.0002,0.0003,0.0119,0.012,0,0,-0.015,-0.015,-0.0109,-0.0101,-0.0171,-0.0152,-0.0152,-0.0047,-0.0038,0.0005,0.0011,-0.0001,0.0003,0.0004,0.0119,0.012,0,0,0,-0.0163,-0.015,-0.0157,-0.0106,-0.0115,-0.0152,-0.0151,-0.0043,-0.0047,0.0013,0.0001,0.0004,0.0006,0.0119,0.0119,0.0021,0,0,0,-0.0163,-0.0159,-0.0157,-0.0155,-0.0119,-0.0095,-0.0149,-0.0055,-0.0044,-0.0,0.0004,0.0007,0.0119,0.0119,0.0023,-0.0016,0,0,0,-0.0164,-0.0159,-0.0163,-0.0155,-0.0157,-0.0098,-0.0096,-0.0053,-0.0051,0.0002,0.0008,0.0119,0.0119,0.0025,-0.0012,-0.0004,0,0,0,-0.0156,-0.0169,-0.0163,-0.018,-0.0158,-0.0162,-0.0097,-0.0078,-0.0041,0.0005,0.0119,0.0119,0.0026,-0.0009,-0.0002,0.0055,0.005,0,0,-0.017,-0.017,-0.0183,-0.0178,-0.0203,-0.0163,-0.0161,-0.0082,-0.0011,0.0096,0.0098,0.0022,-0.0012,-0.0004,0.0069,0.0064,0,0,0,-0.0186,-0.02,-0.0204,-0.0219,-0.0213,-0.0205,-0.0142,-0.0099,-0.0019,0.0009,0.0055,0.0038,0.0046,0.0085,0.0082,0.0121,0.0121,0.0121,0.012,-0.0193,-0.0211,-0.0241,-0.0261,-0.0255,-0.0221,-0.0199,-0.012,-0.0051,-0.0028,-0.0019,-0.0047,-0.0006,-0.0008,0.0008,0.0008,0.0008,0.0007,0.0007,-0.0241,-0.0284,-0.0282,-0.0319,-0.0306,-0.0294,-0.0228,-0.0188,-0.012,-0.0068,-0.0056,0.0008,-0.0018,0.0,0.0001,0.0002,0.0003,0.0004,0.0004,-0.028,-0.0311,-0.032,-0.0365,-0.0371,-0.0341,-0.0326,-0.0269,-0.0192,-0.0195,-0.0089,-0.0086,-0.0107,-0.0171,-0.0172,-0.0172,-0.0172,-0.0172,-0.0172,-0.0333,-0.0349,-0.0381,-0.0414,-0.0431,-0.0432,-0.0379,-0.0336,-0.0238,-0.0174,-0.0173,-0.0106,-0.0101,-0.0114,-0.0175,-0.0174,-0.0174,-0.0174,-0.0173,-0.0438,-0.0402,-0.0463,-0.0481,-0.0512,-0.051,-0.0453,-0.0325,-0.0267,-0.0203,-0.0142,-0.0142,-0.0093,-0.0087,-0.0097,-0.015,-0.015,-0.015,-0.015,-0.0484,-0.0479,-0.0528,-0.0557,-0.0586,-0.0548,-0.0453,-0.0289,-0.0156,-0.0088,-0.0091,-0.0053,-0.0055,-0.0001,0.0003,-0.0004,-0.0033,-0.0033,-0.0033,-0.0549,-0.0551,-0.0591,-0.0593,-0.0619,-0.0575,-0.0444,-0.0174,0.0018,-0.003,-0.0089,-0.0139,-0.0089,-0.009,-0.0007,-0.0002,-0.0012,0,0]}],[{"header":{"parameterUnit":"m.s-1","parameterCategory":2,"la1":30.2992,"la2":30.254,"lo1":-89.0895,"lo2":-89.0443,"dy":0.0025,"dx":0.0025,"nx":19,"ny":19,"refTime":"2026-03-17T21:00:00:Z","depth":"4","parameterNumber":2,"parameterNumberName":"U-component_of_CURRENTS"},"data":[0,0,0,-0.088,-0.0881,-0.0953,-0.0954,-0.0999,-0.0999,0,0,0,0,0,0,0,0,0,0,0,-0.0853,-0.0853,-0.088,-0.0881,-0.0953,-0.0954,-0.0999,-0.0999,0,0,0,0,0,0,0,0,0,0,0,-0.0853,-0.0853,-0.0854,-0.0882,-0.0953,-0.0954,-0.0999,-0.0958,0,0,0,0,0,0,0,0,0,0,-0.0894,-0.0883,-0.0853,-0.0854,-0.0882,-0.0953,-0.0954,-0.0956,-0.096,-0.0951,0,-0.0959,0,-0.0977,-0.1001,-0.1001,0,0,0,-0.0888,-0.088,-0.0889,-0.0854,-0.0883,-0.0953,-0.0923,-0.0959,-0.0963,-0.0956,-0.096,-0.0962,-0.0978,-0.1001,-0.1001,-0.1027,-0.1027,0,0,-0.0884,-0.0877,-0.0886,-0.0892,-0.0896,-0.092,-0.0925,-0.0962,-0.0969,-0.096,-0.0963,-0.0978,-0.1001,-0.1001,-0.1027,-0.1027,0,0,0,-0.0868,-0.0874,-0.0884,-0.0889,-0.0904,-0.0922,-0.0928,-0.0968,-0.0968,-0.0964,-0.0979,-0.1001,-0.1001,-0.1027,-0.1027,-0.1066,0,0,0,-0.0866,-0.0864,-0.0882,-0.088,-0.0904,-0.0946,-0.0932,-0.0966,-0.0971,-0.0979,-0.1001,-0.1001,-0.1027,-0.1027,-0.1065,-0.1114,0,0,0,-0.0851,-0.0863,-0.0867,-0.0879,-0.0906,-0.0946,-0.095,-0.0968,-0.0979,-0.1001,-0.1001,-0.1027,-0.1027,-0.1064,-0.1111,-0.1116,0,0,0,-0.0847,-0.085,-0.0867,-0.0876,-0.0906,-0.094,-0.095,-0.0985,-0.1005,-0.1001,-0.1027,-0.1027,-0.1063,-0.1109,-0.1114,-0.0932,0,0,0,-0.0845,-0.085,-0.0853,-0.0869,-0.0902,-0.0931,-0.0969,-0.0999,-0.1004,-0.1012,-0.1013,-0.1065,-0.111,-0.1115,-0.0953,0,0,0,0,-0.0848,-0.0857,-0.0865,-0.0893,-0.0918,-0.0976,-0.0996,-0.1007,-0.1042,-0.1017,-0.1061,-0.1089,-0.109,-0.0978,-0.1029,-0.1029,-0.1029,-0.1029,-0.1029,-0.0874,-0.0879,-0.0908,-0.0928,-0.0955,-0.1006,-0.1049,-0.1073,-0.1048,-0.1069,-0.1116,-0.1146,-0.1028,-0.1093,-0.1093,-0.1093,-0.1093,-0.1093,-0.1093,-0.0907,-0.0911,-0.096,-0.0989,-0.1038,-0.1079,-0.1122,-0.1127,-0.1164,-0.1141,-0.1138,-0.1022,-0.1097,-0.1096,-0.1096,-0.1095,-0.1095,-0.1095,-0.1095,-0.0915,-0.0911,-0.0962,-0.1019,-0.1095,-0.1132,-0.1178,-0.1215,-0.1226,-0.1251,-0.1097,-0.1177,-0.1178,-0.1227,-0.1227,-0.1228,-0.1228,-0.1228,-0.1228,-0.0882,-0.0929,-0.0955,-0.103,-0.1065,-0.1124,-0.1206,-0.1216,-0.1243,-0.1147,-0.1259,-0.1191,-0.1187,-0.1186,-0.1232,-0.1231,-0.1231,-0.123,-0.123,-0.0815,-0.0852,-0.0877,-0.0914,-0.0985,-0.102,-0.1128,-0.1114,-0.1111,-0.1066,-0.1073,-0.108,-0.1052,-0.1051,-0.1044,-0.1051,-0.1048,-0.1046,0,-0.0757,-0.0781,-0.0798,-0.0822,-0.0842,-0.0942,-0.0897,-0.0937,-0.0971,-0.0933,-0.1113,-0.1122,-0.1125,-0.1095,-0.109,-0.1082,0,0,0,-0.071,-0.0727,-0.071,-0.0753,-0.0768,-0.0796,-0.0879,-0.0843,-0.0972,-0.0916,-0.0992,-0.1006,-0.1137,-0.1243,-0.1217,-0.1211,-0.1209,0,0]},{"header":{"parameterUnit":"m.s-1","parameterCategory":2,"la1":30.2992,"la2":30.254,"lo1":-89.0895,"lo2":-89.0443,"dy":0.0025,"dx":0.0025,"nx":19,"ny":19,"refTime":"2026-03-17T21:00:00:Z","depth":"4","parameterNumber":3,"parameterNumberName":"V-component_of_CURRENTS"},"data":[0,0,0,-0.0134,-0.0134,-0.0155,-0.0155,-0.0169,-0.0169,0,0,0,0,0,0,0,0,0,0,0,-0.0128,-0.0128,-0.0134,-0.0135,-0.0155,-0.0155,-0.0169,-0.0169,0,0,0,0,0,0,0,0,0,0,0,-0.0128,-0.0128,-0.0128,-0.0135,-0.0155,-0.0155,-0.0169,-0.0156,0,0,0,0,0,0,0,0,0,0,-0.0137,-0.0131,-0.0128,-0.0128,-0.0135,-0.0155,-0.0155,-0.0155,-0.0157,-0.0156,0,-0.0163,0,-0.0167,-0.017,-0.017,0,0,0,-0.0132,-0.013,-0.0139,-0.0128,-0.0135,-0.0155,-0.0145,-0.0156,-0.0158,-0.0158,-0.0163,-0.0164,-0.0167,-0.017,-0.017,-0.0191,-0.0191,0,0,-0.0131,-0.0127,-0.0138,-0.014,-0.0145,-0.0145,-0.0146,-0.0157,-0.0158,-0.0163,-0.0164,-0.0167,-0.017,-0.017,-0.0191,-0.0191,0,0,0,-0.0129,-0.0126,-0.0135,-0.0139,-0.0144,-0.0145,-0.0147,-0.0158,-0.0162,-0.0164,-0.0167,-0.017,-0.017,-0.0191,-0.0191,-0.0204,0,0,0,-0.0129,-0.0126,-0.0135,-0.0132,-0.0144,-0.0152,-0.0147,-0.0161,-0.0162,-0.0167,-0.017,-0.017,-0.0191,-0.0191,-0.0203,-0.0199,0,0,0,-0.0126,-0.0125,-0.013,-0.0132,-0.0142,-0.0152,-0.0157,-0.0161,-0.0164,-0.017,-0.017,-0.0191,-0.0191,-0.0203,-0.0198,-0.0177,0,0,0,-0.0118,-0.0133,-0.013,-0.015,-0.0142,-0.0169,-0.0157,-0.0175,-0.0182,-0.017,-0.0191,-0.0191,-0.0203,-0.0198,-0.0177,-0.0173,0,0,0,-0.0134,-0.0135,-0.0148,-0.0146,-0.0182,-0.0166,-0.0191,-0.0194,-0.0185,-0.0185,-0.0186,-0.0204,-0.0198,-0.0177,-0.0193,0,0,0,0,-0.0152,-0.0162,-0.0173,-0.0192,-0.0206,-0.021,-0.0213,-0.0205,-0.0203,-0.0191,-0.0207,-0.0203,-0.0189,-0.0187,-0.0193,-0.0193,-0.0193,-0.0193,-0.0193,-0.0158,-0.0176,-0.0207,-0.023,-0.024,-0.0244,-0.0234,-0.0221,-0.0224,-0.0221,-0.0216,-0.0213,-0.0213,-0.0225,-0.0225,-0.0225,-0.0225,-0.0225,-0.0225,-0.0195,-0.0227,-0.0233,-0.027,-0.0273,-0.0285,-0.0258,-0.0246,-0.0221,-0.0228,-0.0215,-0.0206,-0.0227,-0.0226,-0.0226,-0.0226,-0.0226,-0.0226,-0.0226,-0.022,-0.0242,-0.0255,-0.03,-0.0313,-0.0311,-0.0295,-0.0267,-0.0227,-0.0212,-0.0201,-0.021,-0.0204,-0.0211,-0.0211,-0.0211,-0.0211,-0.0211,-0.0211,-0.0252,-0.0268,-0.0301,-0.0334,-0.0355,-0.036,-0.0321,-0.0283,-0.0237,-0.0205,-0.0217,-0.0207,-0.0208,-0.0202,-0.0209,-0.0209,-0.021,-0.021,-0.021,-0.0313,-0.0301,-0.0357,-0.0381,-0.0418,-0.0415,-0.0376,-0.0276,-0.0232,-0.0178,-0.0189,-0.019,-0.0177,-0.0178,-0.0171,-0.0168,-0.0168,-0.0168,0,-0.0342,-0.0343,-0.0402,-0.0438,-0.0462,-0.0444,-0.0378,-0.0315,-0.0231,-0.0235,-0.0245,-0.0263,-0.0262,-0.0254,-0.0254,-0.0251,0,0,0,-0.0377,-0.039,-0.0432,-0.0457,-0.0481,-0.0405,-0.0359,-0.0318,-0.0249,-0.0177,-0.0167,-0.0167,-0.0216,-0.0205,-0.0186,-0.0187,-0.0176,0,0]}]]